Location: ??????????
(54.8537°N, 38.8755°E)
Time: 03:11:45
(UTC+00:00)

Vanguard 2 Rocket - Pass Details

Date: 16 September 2024
Orbit: 553 x 3298 km, 32.9° (Epoch: 10 October)

Event Time Altitude Azimuth Distance (km) Brightness Sun altitude
Rises 22:31:04 0° 213° (SSW) 4,478 - -31.1°
Reaches altitude 10° 22:34:35 10° 198° (SSW) 3,901 - -30.9°
Maximum altitude 22:42:11 22° 153° (SSE) 3,796 - -30.5°
Exits shadow 22:42:45 22° 150° (SSE) 3,851 9.7 -30.4°
Drops below altitude 10° 22:52:40 10° 112° (ESE) 5,563 10.9 -29.8°
Sets 22:59:08 0° 100° (E) 6,954 11.6 -29.4°
